Welcome to the New NWS' Forecast!
Most changes are behind the scenes, but click here for differences you might notice.
Latest weather observations around

Fort Smith, Fort Smith Regional Airport (KFSM)

Using English Units (Switch to International System of Units)
Date/ Time (CDT) Wind (mph) Vis. (mi) Weather Sky Cond. Temp (°F) Rel. Humidity Wind Chill (°F) Heat Index (°F) Pressure Precip. (in)
Air Dwpt 6 hour Altimeter (inHg) Sea level (inHg) 1 hr 3 hr 6 hr
Max Min
Apr 28 05:53 E 11 10 Mostly Cloudy BKN042 58 52     81%     29.68 29.67      
Apr 28 04:53 E 14 10 Clear CLR 59 51     75%     29.69 29.68      
Apr 28 03:53 ENE 15 10 Clear CLR 59 51     75%     29.71 29.7      
Apr 28 02:53 ENE 11 10 Clear CLR 59 51     75%     29.72 29.7      
Apr 28 01:53 E 14 10 Clear CLR 59 51     75%     29.72 29.71      
Apr 28 00:53 E 11 10 Clear CLR 59 51     75%     29.73 29.72      
Apr 27 23:53 E 10 10 Clear CLR 60 51     72%     29.72 29.72      
Apr 27 22:53 E 8 10 Clear CLR 62 49     62%     29.73 29.72      
Apr 27 21:53 E 5 10 Clear CLR 63 49     60%     29.73 29.72      
Apr 27 20:53 E 5 10 Clear CLR 62 50     65%     29.7 29.69      
Apr 27 19:53 ESE 7 10 Clear CLR 65 50     58%     29.66 29.65      
Apr 27 18:53 E 13 10 Clear CLR 68 52     57%     29.65 29.65      
Apr 27 17:53 E 11 10 Clear CLR 70 49     47%     29.66 29.65      
Apr 27 16:53 ESE 10 10 Clear CLR 69 46     44%     29.69 29.68      
Apr 27 15:53 ESE 9 10 Clear CLR 68 44     42%     29.72 29.71      
Apr 27 14:53 E 7 10 Clear CLR 66 44     45%     29.76 29.75      
Apr 27 13:53 Calm 10 Clear CLR 65 43     45%     29.8 29.8      
Apr 27 12:53 6 10 Clear CLR 62 41     46%     29.84 29.84      
Apr 27 11:53 E 7 10 Clear CLR 61 41     48%     29.83 29.83      
Apr 27 10:53 3 10 Clear CLR 57 43     59%     29.82 29.82      
Apr 27 09:53 NNE 5 10 Clear CLR 55 44     66%     29.82 29.81      
Apr 27 08:53 Calm 10 Clear CLR 53 45     74%     29.81 29.8      
Apr 27 07:53 Calm 10 Clear CLR 51 45     79%     29.79 29.79      
Apr 27 06:53 SW 5 10 Clear CLR 45 42     90% 43   29.79 29.79      
Apr 27 05:53 WSW 5 10 Clear CLR 45 42     90% 43   29.77 29.77      
Apr 27 04:53 W 6 10 Clear CLR 45 43     93% 42   29.75 29.75      
Apr 27 03:53 W 7 10 Clear CLR 45 42     90% 41   29.73 29.73      
Apr 27 02:53 W 6 10 Clear CLR 46 42     86% 43   29.72 29.72      
Apr 27 01:53 Calm 10 Clear CLR 47 43     86%     29.74 29.73      
Apr 27 00:53 WSW 3 10 Clear CLR 48 45     89% 47   29.75 29.75      
Apr 26 23:53 W 5 10 Cloudy OVC047 50 44     80% 48   29.75 29.74      
Apr 26 22:53 WNW 7 10 Cloudy OVC044 51 43     74%     29.73 29.73      
Apr 26 21:53 WNW 6 10 Cloudy BKN036 OVC045 51 43     74%     29.72 29.72      
Apr 26 21:41 NW 8 10 Cloudy SCT021 BKN034 OVC045 51 43     74%     29.71        
Apr 26 21:00 WNW 13 10 Cloudy OVC019 51 44     77%     29.71        
Apr 26 20:53 WNW 13 10 Cloudy OVC013 51 44     77%     29.7 29.7      
Apr 26 19:53 NW 11 10 Cloudy OVC013 51 44     77%     29.66 29.65      
Apr 26 18:53 WNW 14 10 Cloudy OVC013 51 45     79%     29.62 29.62     0
Apr 26 17:53 NW 11 10 Cloudy BKN012 OVC024 53 46     77%     29.6 29.59      
Apr 26 16:53 WNW 14 10 Cloudy OVC016 54 47     77%     29.58 29.57      
Apr 26 15:53 WNW 14 10 Cloudy OVC012 54 49     83%     29.55 29.54   0  
Apr 26 15:39 WNW 13 10 Cloudy BKN011 OVC016 54 50     86%     29.56        
Apr 26 15:16 WNW 11 6 Fog/Mist OVC009 54 51     90%     29.56        
Apr 26 14:53 NW 10 10 Cloudy OVC012 55 50     83%     29.54 29.53 0    
Apr 26 14:23 WNW 6 10 Cloudy BKN013 OVC023 56 50     80%     29.55        
Apr 26 14:14 WNW 9 10 Cloudy SCT013 BKN023 OVC034 56 51     84%     29.55        
Apr 26 13:53 W 11 10 Cloudy BKN013 OVC023 56 51     84%     29.54 29.53 0    
Apr 26 12:53 WNW 9 10 Cloudy OVC012 57 53     87%     29.54 29.52 0   1
Apr 26 12:45 NW 13 10 Light Rain BKN012 OVC019 57 53     87%     29.52   0    
Apr 26 11:53 7 10 Light Rain OVC007 57 54     89%     29.51 29.49 0    
Apr 26 10:53 W 16 5 Thunderstorms and Rain and Fog/Mist OVC007 58 55     90%     29.53 29.52 0    
Apr 26 10:34 WSW 13 5 Thunderstorms and Rain and Fog/Mist BKN007 OVC014 58 55     90%     29.53   0    
Apr 26 10:26 WSW 17 8 Thunderstorms and Light Rain SCT007 OVC012 59 56     90%     29.54   0    
Apr 26 09:53 SSW 14 3 Thunderstorms and Heavy Rain and Fog/Mist BKN010 BKN019 OVC090 62 59     90%     29.54   0 1  
Apr 26 09:32 S 8 4 Thunderstorms and Rain and Fog/Mist SCT004 BKN065 OVC090 63 60     90%     29.51   0    
Apr 26 09:31 S 8 4 Thunderstorms and Rain and Fog/Mist SCT004 BKN065 OVC090 63 60     90%     29.51   0    
Apr 26 09:14 ESE 5 7 Thunderstorms and Light Rain FEW006 FEW065 OVC095 63 60     90%     29.46   0    
Apr 26 08:53 ESE 5 5 Thunderstorms and Rain and Fog/Mist SCT035 SCT075 OVC095 63 60     90%     29.46 29.44 1    
Apr 26 08:42 E 7 2.5 Thunderstorms and Rain and Fog/Mist FEW012 BKN035 OVC065 63 60     90%     29.45   1    
Apr 26 07:58 NW 13 2.5 Thunderstorms and Rain and Fog/Mist FEW008 SCT020 OVC027 65 61     87%     29.49   0    
Apr 26 07:53 NNW 9 4 Thunderstorms and Rain and Fog/Mist OVC027 65 61     87%     29.48 29.46 0    
Apr 26 07:37 N 8 10 Thunderstorms FEW016 OVC025 66 62     87%     29.47   0    
Apr 26 07:22 NE 5 10 Cloudy BKN016 OVC023 66 62     87%     29.45   0    
Apr 26 06:53   10 Light Rain BKN029 OVC060 65 62     90%     29.45 29.44 0   1
Apr 26 06:45 N 7 10 Light Rain OVC030 65 61     87%     29.44   0    
Apr 26 06:34 NE 3 10 Light Rain OVC032 65 61     87%     29.44   0    
Apr 26 06:19 E 3 10 Thunderstorms OVC033 65 61     87%     29.44        
Apr 26 06:12 E 5 10 Cloudy OVC033 64 60     87%     29.44        
Apr 26 05:53 ENE 7 10 Cloudy OVC031 64 60     87%     29.44 29.42      
Apr 26 04:53 ESE 9 10 Cloudy OVC036 65 62     90%     29.46 29.45 0    
Apr 26 04:21 ENE 6 10 Cloudy BKN042 BKN048 OVC060 64 62     93%     29.48   0    
Apr 26 03:53 ESE 9 7 Light Rain FEW012 BKN046 OVC055 65 62     90%     29.47 29.46 1 1  
Apr 26 03:51 E 7 6 Thunderstorms and Light Rain and Fog/Mist FEW012 BKN046 OVC055 64 63     94%     29.47   1    
Apr 26 03:42 ESE 6 3 Rain and Fog/Mist FEW012 BKN029 OVC050 65 61     87%     29.48   0    
Apr 26 03:35 3 3 Thunderstorms and Heavy Rain and Fog/Mist SCT028 BKN045 OVC055 65 61     87%     29.48   0    
Apr 26 03:28 W 6 2.5 Thunderstorms and Light Rain and Fog/Mist BKN023 BKN042 OVC050 65 61     87%     29.49   0    
Apr 26 03:16   1.75 Thunderstorms and Heavy Rain FEW014 OVC042 65 60     84%     29.48   0    
Apr 26 03:11 W 16 7 Thunderstorms and Rain OVC040 66 59     78%     29.49   0    
Apr 26 02:53 WNW 17 10 Light Rain BKN036 OVC050 68 57     68%     29.5 29.48 0    
Apr 26 02:35 WNW 6 10 Cloudy SCT029 BKN038 OVC065 69 57     65%     29.51   0    
Apr 26 02:23 NNW 10 10 Thunderstorms and Light Rain BKN029 BKN036 OVC048 70 57     63%     29.5   0    
Apr 26 01:53 NNW 6 10 Cloudy OVC037 73 63     71%   73 29.49 29.47      
Apr 26 00:53 NNW 5 10 Cloudy OVC036 74 63     69%   74 29.47 29.45      
Apr 25 23:53 ENE 8 10 Partly Cloudy SCT040 70 63     78%     29.43 29.42      
Apr 25 22:53 E 6 10 Mostly Clear FEW043 72 62     71%   72 29.47 29.45      
Apr 25 21:53 E 5 10 Cloudy OVC041 75 62     64%   75 29.46 29.44      
Apr 25 20:53 SE 6 10 Mostly Cloudy BKN047 76 61     60%   76 29.44 29.43      
Apr 25 19:56 SE 6 10 Mostly Cloudy BKN047 77 61     58%   77 29.45        
Apr 25 19:53 ESE 7 10 Cloudy OVC047 77 61     58%   77 29.45 29.44      
Apr 25 18:53 SSE 6 10 Partly Cloudy SCT050 79 60     52%   79 29.45 29.44      
Apr 25 17:53 S 10 10 Clear   80 60     51%   81 29.45 29.44      
Apr 25 16:53 SSW 15 10 Clear CLR 81 59     47%   81 29.45 29.44      
Apr 25 15:53 SW 10 10 Clear CLR 81 59     47%   81 29.47 29.45      
Apr 25 14:53 S 15 10 Clear CLR 82 59     46%   82 29.47 29.46      
Apr 25 13:53 S 11 10 Clear CLR 82 58     44%   82 29.47 29.46      
Apr 25 12:53 S 10 10 Clear CLR 82 58     44%   82 29.5 29.48      
Apr 25 11:53 S 14 10 Clear CLR 81 56     42%   81 29.52 29.51      
Apr 25 09:53 E 11 10 Clear CLR 70 53     55%     29.56 29.54      
Apr 25 08:53 ESE 11 10 Clear CLR 65 49     56%     29.58 29.57      
Apr 25 07:53 SE 8 10 Clear CLR 60 46     60%     29.6 29.59      
Apr 25 06:53 NE 8 10 Clear CLR 55 46     72%     29.59 29.58      
Apr 25 05:53 NE 5 10 Clear CLR 54 46     74%     29.6 29.59      
Apr 25 04:53 ENE 7 10 Clear CLR 55 46     72%     29.62 29.6      
Apr 25 03:53 NE 5 10 Clear CLR 55 45     69%     29.62 29.61      
Apr 25 02:53 NNE 3 10 Clear CLR 58 44     60%     29.64 29.62      
Apr 25 01:53 Calm 10 Clear CLR 58 44     60%     29.66 29.65      
Apr 25 00:53 Calm 10 Clear CLR 59 44     58%     29.68 29.67      
Apr 24 23:53 Calm 10 Clear CLR 61 43     52%     29.68 29.67      
Apr 24 22:53 E 3 10 Clear CLR 63 41     45%     29.69 29.67      
Apr 24 21:53 SE 5 10 Clear CLR 65 41     42%     29.68 29.67      
Apr 24 20:53 SSE 6 10 Clear CLR 68 41     37%     29.67 29.67      
Apr 24 19:53 SSE 5 10 Clear CLR 72 39     30%   70 29.67 29.66      
Apr 24 18:53 SSE 11 10 Clear CLR 77 35     22%   75 29.67 29.67      
Apr 24 17:53 SSE 11 10 Clear CLR 79 35     20%   78 29.68 29.67      
Apr 24 16:53 SSE 8 10 Clear CLR 80 38     22%   79 29.69 29.68      
Apr 24 15:53 SSE 13 10 Clear CLR 79 38     23%   78 29.75 29.73      
Apr 24 14:53 SSW 8 10 Clear CLR 77 41     28%   76 29.79 29.78      
Apr 24 13:53   10 Clear CLR 75 35     23%   73 29.83 29.82      
Apr 24 12:53 S 8 10 Clear CLR 74 36     25%   72 29.88 29.87      
Apr 24 11:53   10 Clear CLR 71 39     31%   69 29.93 29.92      
Apr 24 10:53 ESE 6 10 Clear CLR 66 45     47%     29.96 29.95      
Apr 24 09:53 ENE 3 10 Clear CLR 60 46     60%     29.98 29.97      
Apr 24 08:53 Calm 10 Clear CLR 55 45     69%     30 29.99      
Apr 24 07:53 Calm 10 Clear CLR 50 45     83%     30 29.99      
Apr 24 06:53 Calm 10 Clear CLR 44 41     89%     29.99 29.98      
Apr 24 05:53 Calm 10 Clear CLR 45 41     86%     29.97 29.97      
Apr 24 04:53 Calm 10 Clear CLR 45 42     90%     29.97 29.96      
Apr 24 03:53 Calm 10 Clear CLR 47 43     86%     29.96 29.95      
Apr 24 02:53 Calm 10 Clear CLR 48 44     86%     29.95 29.94      
Apr 24 01:53 Calm 10 Clear CLR 49 44     83%     29.96 29.96      
Apr 24 00:53 WSW 7 10 Clear CLR 51 45     79%     29.97 29.96      
Apr 23 23:53 Calm 10 Clear CLR 52 44     74%     29.94 29.94      
Apr 23 22:53 Calm 10 Clear CLR 55 45     69%     29.97 29.97      
Apr 23 21:53 E 3 10 Clear CLR 59 41     51%     30 29.99      
Apr 23 20:53 NNW 7 10 Clear CLR 63 39     41%     30 29.99      
Apr 23 19:53 NW 8 10 Clear CLR 67 38     34%     30 30      
Apr 23 18:53 NW 10 10 Clear CLR 71 37     29%   69 30.01 30      
Apr 23 17:53 NNW 11 10 Clear CLR 73 36     26%   71 30.01 30      
Apr 23 16:53 NW 14 10 Clear CLR 73 34     24%   71 30.01 30.01      
Apr 23 15:53 NNW 14 10 Clear CLR 73 35     25%   71 30.03 30.02      
Apr 23 14:53   10 Clear CLR 72 34     25%   70 30.05 30.04      
Apr 23 14:42 NNW 9 10 Clear CLR 72 34     25%   70 30.05        
Apr 23 13:53 NNE 5 10 Clear CLR 70 32     24%     30.05 30.05      
Apr 23 12:53 NNE 5 10 Clear CLR 68 34     28%     30.08 30.07      
Apr 23 11:53 NE 8 10 Clear CLR 66 34     30%     30.1 30.09      
Apr 23 10:53 NE 9 10 Clear CLR 63 36     37%     30.11 30.11      
Apr 23 09:53 N 5 10 Clear CLR 59 39     47%     30.12 30.11      
Apr 23 08:53 NW 6 10 Clear CLR 56 41     57%     30.12 30.11      
Apr 23 07:53 NW 6 10 Clear CLR 52 42     69%     30.12 30.11      
Apr 23 06:53 WSW 5 10 Clear CLR 46 42     86% 44   30.11 30.11      
Apr 23 05:53 Calm 10 Clear CLR 46 42     86%     30.09 30.09      
Apr 23 04:53 SW 3 10 Clear CLR 47 43     86% 46   30.08 30.08      
Apr 23 03:53 W 6 10 Clear CLR 47 44     90% 44   30.09 30.09      
Apr 23 02:53 WNW 7 10 Mostly Cloudy BKN070 50 44     80% 47   30.09 30.09      
Apr 23 01:53 NW 7 10 Cloudy OVC065 51 45     79%     30.09 30.09      
Apr 23 00:53 NNW 8 10 Cloudy OVC055 52 44     74%     30.1 30.1     0
Apr 22 23:53 NNW 6 10 Cloudy SCT031 SCT048 OVC075 51 45     79%     30.1 30.1 0    
Apr 22 22:53 NNW 8 10 Cloudy BKN033 OVC070 52 44     74%     30.11 30.1      
Apr 22 21:53 N 8 10 Cloudy BKN060 OVC070 52 44     74%     30.1 30.1      
Apr 22 20:53 N 10 10 Cloudy OVC033 52 43     71%     30.09 30.08      
Apr 22 19:53 NNW 11 10 Cloudy OVC036 52 43     71%     30.07 30.07      
Apr 22 19:30 NNW 13 10 Cloudy FEW020 OVC030 52 44     74%     30.07        
Apr 22 18:53 NW 11 10 Cloudy BKN021 BKN026 OVC033 52 44     74%     30.06 30.06     0
Apr 22 18:00 NW 9 10 Cloudy BKN026 OVC032 53 44     71%     30.05        
Apr 22 17:53 NW 13 10 Cloudy SCT024 OVC032 53 44     71%     30.05 30.05      
Apr 22 17:40 NW 10 10 Cloudy BKN029 OVC037 53 44     71%     30.05        
Apr 22 17:33 WNW 10 10 Cloudy SCT024 OVC031 54 43     66%     30.04        
Apr 22 17:20 NW 14 10 Cloudy BKN029 OVC037 54 43     66%     30.04        
Apr 22 16:53 NW 15 10 Cloudy SCT027 BKN033 OVC039 54 44     69%     30.04 30.03      
Apr 22 16:45 N 13 10 Cloudy FEW027 OVC032 55 43     64%     30.03        
Apr 22 15:53 NNW 13 10 Cloudy BKN020 BKN025 OVC050 55 43     64%     30.03 30.02   0  
Apr 22 14:53 NW 20 10 Cloudy and Windy OVC017 53 44     71%     30.03 30.02 0    
Apr 22 13:53 NW 18 10 Light Rain BKN015 OVC021 54 47     77%     30.02 30.01 0    
Apr 22 12:53 NW 17 10 Cloudy SCT020 OVC027 57 47     69%     30 29.99      
Apr 22 11:53 NNW 14 10 Mostly Cloudy BKN022 59 48     67%     29.99 29.99      
Apr 22 10:53 NW 13 10 Cloudy FEW013 OVC023 56 49     77%     29.98 29.98      
Apr 22 10:43 NW 15 10 Cloudy BKN014 OVC020 56 49     77%     29.98        
Apr 22 10:00 WNW 14 10 Cloudy OVC015 56 49     77%     29.97        
Apr 22 09:53 NW 13 10 Cloudy BKN013 OVC035 56 49     77%     29.97 29.96      
Apr 22 08:53 WNW 11 10 Cloudy BKN013 BKN020 OVC027 55 50     83%     29.96 29.95      
Apr 22 07:53 WNW 11 8 Cloudy BKN013 BKN020 OVC027 54 50     86%     29.94 29.93      
Apr 22 07:21 WNW 9 10 Cloudy BKN012 OVC017 54 50     86%     29.93        
Apr 22 06:53 WNW 11 10 Cloudy SCT013 OVC025 55 51     86%     29.92 29.91     0
Apr 22 05:53 NW 11 10 Cloudy FEW010 BKN015 OVC020 56 51     84%     29.89 29.88 0    
Apr 22 04:53 WNW 11 4 Light Rain and Fog/Mist BKN006 OVC012 57 54     89%     29.86 29.86 0    
Apr 22 04:26 NNW 9 4 Light Rain and Fog/Mist BKN007 OVC013 57 54     89%     29.87   0    
Apr 22 04:03 NW 9 3 Light Rain and Fog/Mist SCT005 OVC013 58 55     90%     29.87   0    
Apr 22 03:53 NNW 9 3 Light Rain and Fog/Mist BKN005 OVC013 58 55     90%     29.86 29.85 0 0  
Apr 22 03:43 NNW 9 3 Light Rain and Fog/Mist SCT005 OVC011 58 55     90%     29.85   0    
Apr 22 03:33 NW 7 4 Light Rain and Fog/Mist FEW005 OVC009 58 56     93%     29.85   0    
Apr 22 02:53 NNW 5 9 Cloudy FEW007 OVC012 59 56     90%     29.83 29.83 0    
Apr 22 02:40 N 7 5 Light Rain and Fog/Mist SCT006 OVC012 59 56     90%     29.83   0    
Apr 22 02:33 N 9 4 Light Rain and Fog/Mist BKN006 OVC012 59 56     90%     29.83   0    
Apr 22 02:26 ENE 8 6 Fog/Mist SCT008 OVC012 59 56     90%     29.84        
Apr 22 01:53 NE 6 10 Cloudy OVC011 60 56     86%     29.84 29.84 0    
Apr 22 00:53 NNE 5 10 Cloudy OVC010 61 56     83%     29.85 29.84     1
Apr 22 00:46 Calm 10 Cloudy OVC011 61 57     87%     29.84        
Apr 22 00:31 3 10 Cloudy OVC009 61 57     87%     29.84        
Apr 22 00:21 N 5 10 Cloudy OVC010 61 57     87%     29.84        
Apr 22 00:13 N 6 10 Cloudy BKN008 OVC020 61 57     87%     29.84        
Apr 22 00:01 N 7 10 Cloudy SCT007 BKN021 OVC038 61 57     87%     29.84        
Apr 21 23:53 5 10 Cloudy BKN021 OVC038 61 57     87%     29.84 29.83 0    
Apr 21 23:33 ENE 6 10 Cloudy BKN023 OVC040 61 57     87%     29.83   0    
Apr 21 23:22 NE 6 10 Light Rain SCT025 OVC040 61 57     87%     29.83   0    
Apr 21 22:53 ENE 7 10 Cloudy FEW008 OVC026 62 58     86%     29.83 29.82 0    
Apr 21 22:39 N 9 10 Cloudy FEW008 SCT021 OVC029 62 59     90%     29.84   0    
Apr 21 22:29 NE 9 10 Cloudy FEW011 SCT019 OVC031 62 59     90%     29.84   0    
Apr 21 22:17 NNE 8 4 Light Rain and Fog/Mist SCT007 BKN015 OVC022 62 59     90%     29.84   0    
Apr 21 22:11 NNE 10 1.5 Heavy Rain and Fog/Mist SCT007 BKN010 OVC017 62 59     90%     29.83   0    
Apr 21 21:53 N 8 1.5 Thunderstorms and Heavy Rain and Fog/Mist BKN006 OVC011 62 59     90%     29.82 29.81 0 0  
Apr 21 21:45 NNE 6 2.5 Thunderstorms and Heavy Rain and Fog/Mist BKN009 OVC015 63 60     90%     29.78   0    
Apr 21 21:31 E 10 10 Thunderstorms OVC014 63 59     87%     29.76   0    
Apr 21 21:23 E 11 10 Thunderstorms OVC016 63 59     87%     29.73   0    
Apr 21 21:01 E 11 8 Light Rain OVC014 64 59     84%     29.75   0    
Apr 21 20:53 E 14 10 Cloudy OVC015 65 59     81%     29.74 29.73 0    
Apr 21 20:13 NE 13 10 Cloudy BKN015 BKN048 OVC090 65 59     81%     29.77        
Apr 21 19:53 E 7 10 Mostly Cloudy SCT055 BKN075 BKN090 65 60     84%     29.75 29.75      
Apr 21 18:53 E 10 10 Mostly Cloudy FEW011 BKN060 BKN095 66 60     81%     29.76 29.75     0
Apr 21 17:53 E 15 10 Mostly Cloudy FEW010 BKN080 BKN095 65 59     81%     29.76 29.75 0    
Apr 21 17:27 E 14 10 Mostly Cloudy FEW009 SCT038 BKN100 65 60     84%     29.79   0    
Apr 21 17:10 E 14 10 Light Rain SCT015 BKN047 OVC100 65 60     84%     29.79   0    
Apr 21 16:53 E 11 10 Cloudy OVC015 65 59     81%     29.82 29.81      
Apr 21 16:36 ENE 8 10 Cloudy BKN013 BKN050 OVC060 65 59     81%     29.82        
Apr 21 15:53 E 10 10 Cloudy FEW012 OVC065 66 59     78%     29.82 29.81   0  
Apr 21 14:53 E 9 10 Cloudy FEW008 BKN080 OVC110 64 59     84%     29.88 29.86 0    
Apr 21 14:51 E 10 10 Cloudy FEW008 BKN080 OVC110 64 59     83%     29.88   0    
Apr 21 14:15 ENE 9 10 Light Rain SCT014 SCT024 OVC110 62 58     86%     29.89   0    
Apr 21 13:53 Calm 10 Light Rain FEW007 BKN013 OVC110 61 57     87%     29.93 29.92 0    
Apr 21 13:50 N 5 10 Light Rain FEW007 BKN013 OVC100 61 57     88%     29.94   0    
Apr 21 13:48 NNW 7 10 Light Rain FEW007 BKN100 OVC120 61 57     88%     29.94   0    
Apr 21 13:39 6 9 Light Rain SCT090 OVC110 61 57     87%     29.93   0    
Apr 21 13:29 E 8 3 Thunderstorms and Light Rain and Fog/Mist FEW038 BKN090 OVC110 61 57     87%     29.89   0    
Apr 21 13:14 ENE 11 4 Thunderstorms and Rain and Fog/Mist FEW014 BKN041 OVC080 60 57     90%     29.9   0    
Apr 21 13:01   2.5 Thunderstorms and Rain SCT016 OVC026 62 57     84%         0    
Apr 21 12:53 WSW 6 10 Cloudy FEW016 OVC026 63 57     81%         0   1
Apr 21 12:44 ESE 5 10 Thunderstorms OVC026 63 57     81%     29.94   0    
Apr 21 12:04 ESE 8 8 Light Rain OVC028 63 57     81%     29.9   0    
Apr 21 11:53 E 5 9 Light Rain OVC030 63 57     81%     29.89 29.88 0    
Apr 21 11:39 E 6 10 Thunderstorms and Light Rain OVC031 62 56     80%     29.89   0    
Apr 21 10:53 E 14 10 Light Rain FEW011 OVC035 61 56     83%     29.89 29.88 0    
Apr 21 09:53 E 15 7 Light Rain FEW008 BKN047 OVC060 58 55     90%     29.91 29.9 0 1  
Apr 21 09:29 E 7 7 Light Rain FEW008 BKN047 OVC060 58 54     87%     29.94   0    
Apr 21 08:53 ENE 13 3 Thunderstorms and Rain and Fog/Mist BKN057 OVC085 58 54     87%     29.93 29.92 0    
Apr 21 08:28 ENE 14 3 Thunderstorms and Rain and Fog/Mist BKN040 OVC090 57 54     89%     29.95   0    
Apr 21 07:53 NE 10 2 Thunderstorms and Heavy Rain and Fog/Mist BKN060 OVC090 58 54     87%     29.96 29.95 0    
Apr 21 07:45 ENE 13 2 Thunderstorms and Light Rain and Fog/Mist BKN050 OVC090 58 54     87%     29.98   0    
Apr 21 07:11   0.5 Thunderstorms and Heavy Rain and Fog FEW013 BKN025 OVC042 57 54     89%     29.97   0    
Apr 21 06:53   10 Thunderstorms and Rain FEW013 BKN065 OVC095 62 55     78%     29.96 29.95 0   0
Apr 21 06:25 E 3 7 Thunderstorms and Rain FEW060 BKN090 65 62     90%     29.9   0    
Apr 21 05:53 NE 6 9 Cloudy FEW003 SCT065 OVC095 66 62     87%     29.9 29.89      
Apr 21 05:25 NNE 5 8 Mostly Cloudy FEW003 BKN075 65 62     90%     29.91        
Apr 21 04:53 ENE 5 10 Mostly Clear FEW085 65 62     90%     29.91 29.89      
Apr 21 03:53 ENE 3 9 Clear CLR 64 62     93%     29.91 29.89      
Apr 21 02:53 Calm 10 Mostly Cloudy BKN090 66 63     90%     29.93 29.92      
Apr 21 01:53 Calm 10 Mostly Cloudy BKN090 66 62     87%     29.94 29.93      
Apr 21 00:53 Calm 10 Clear CLR 66 62     87%     29.97 29.96     0
Apr 20 23:53 Calm 10 Clear CLR 67 63     87%     29.98 29.97      
Apr 20 22:53 Calm 10 Mostly Clear FEW039 69 63     81%     30 29.98      
Apr 20 21:53 NE 6 10 Mostly Clear FEW080 70 63     78%     29.99 29.97   0  
Apr 20 20:53 NE 3 10 Clear CLR 71 64     79%   72 29.97 29.96      
Apr 20 19:53 N 6 10 Clear CLR 73 66     79%   74 29.96 29.95 0    
Apr 20 18:53 NNW 9 10 Cloudy BKN037 BKN046 OVC055 76 65     69%   76 29.96 29.95      
Apr 20 17:53 WSW 7 10 Cloudy BKN037 BKN045 OVC070 79 64     60%   79 29.96 29.95      
Apr 20 16:53 WSW 8 10 Mostly Cloudy SCT041 BKN050 82 64     55%   84 29.96 29.94      
Apr 20 15:53 SW 11 10 Mostly Cloudy SCT040 BKN049 BKN055 81 63     54%   82 29.97 29.96      
Apr 19 15:53 S 10 10 Mostly Clear FEW055 81 57     44%   81 30 29.99      
Apr 19 14:53 S 9 10 Mostly Cloudy FEW050 FEW060 BKN075 82 60     47%   82 30.04 30.02      
Apr 19 13:53 SW 9 10 Mostly Cloudy SCT044 BKN060 80 61     52%   81 30.06 30.04      
Apr 19 12:53 SW 10 10 Cloudy SCT040 OVC050 78 60     54%   78 30.07 30.06      
Apr 19 11:53 SSW 9 10 Cloudy OVC039 77 60     56%   77 30.09 30.07      
Apr 19 10:53 SW 7 10 Mostly Cloudy BKN033 76 62     62%   76 30.08 30.06      
Apr 19 10:42 SSW 5 10 Cloudy BKN031 OVC036 74 62     66%   74 30.08        
Apr 19 10:30 SSW 8 10 Mostly Cloudy BKN029 BKN037 74 61     64%   74 30.08        
Apr 19 09:53 S 8 10 Mostly Cloudy SCT028 BKN034 74 62     66%   74 30.08 30.07      
Apr 19 08:53 3 10 Clear CLR 69 62     78%     30.09 30.07      
Apr 19 07:53 Calm 10 Clear CLR 65 61     87%     30.08 30.06      
Apr 19 06:53 NE 3 4 Fog/Mist CLR 61 59     93%     30.06 30.05      
Apr 19 06:15 ENE 3 4 Fog/Mist CLR 61 59     93%     30.05        
Apr 19 06:06 ENE 3 0.5 Fog VV003 61 59     93%     30.05        
Apr 19 06:01 ENE 3 1.75 Fog/Mist CLR 62 59     90%     30.05        
Apr 19 05:53 Calm 8 Clear CLR 62 59     90%     30.05 30.03      
Apr 19 05:13 Calm 4 Fog/Mist CLR 63 60     90%     30.04        
Apr 19 05:03 Calm 1.75 Fog/Mist CLR 62 60     93%     30.04        
Apr 19 04:53 ENE 3 10 Clear CLR 63 60     90%     30.03 30.02      
Apr 19 03:53 Calm 10 Clear CLR 64 60     87%     30.02 30.01      
Apr 19 02:53 Calm 10 Clear CLR 65 61     87%     30.03 30.01      
Apr 19 01:53 NE 3 10 Clear CLR 66 61     84%     30.03 30.02      
Apr 19 00:53 Calm 10 Clear CLR 68 62     81%     30.04 30.02      
Apr 18 22:53 SE 3 10 Clear CLR 72 62     71%   72 30.04 30.03      
Apr 18 21:53 ESE 8 10 Partly Cloudy SCT050 74 62     66%   74 30.04 30.03      
Apr 18 20:53 ENE 3 10 Partly Cloudy SCT055 76 61     60%   76 30.02 30      
Apr 18 19:53 ENE 6 10 Mostly Cloudy BKN060 77 62     60%   77 30 29.98      
Apr 18 18:53 ENE 3 10 Partly Cloudy SCT055 81 60     49%   82 29.99 29.98      
Apr 18 17:53 S 6 10 Partly Cloudy SCT050 83 60     46%   83 29.99 29.98      
Apr 18 16:53 ESE 5 10 Mostly Clear FEW050 82 58     44%   82 30 29.99      
Apr 18 15:53 S 6 10 Mostly Clear FEW050 82 57     43%   82 30.02 30.01      
Apr 18 14:53 SE 3 10 Partly Cloudy SCT043 80 58     47%   80 30.04 30.02      
Apr 18 13:53 Calm 10 Partly Cloudy SCT035 78 59     52%   78 30.05 30.03      
Apr 18 12:53 6 10 Clear CLR 77 60     56%   77 30.06 30.05      
Apr 18 11:53 5 10 Mostly Clear FEW021 73 60     64%   73 30.07 30.06      
Apr 18 11:50 Calm 10 Mostly Clear FEW019 73 61     65%   73 30.07        
Apr 18 11:00 ESE 7 10 Mostly Cloudy BKN016 70 60     71%     30.07        
Apr 18 10:53 ESE 6 10 Mostly Cloudy FEW009 BKN014 BKN019 70 61     73%     30.07 30.06      
Apr 18 10:44 ENE 7 10 Mostly Cloudy BKN014 70 61     73%     30.07        
Apr 18 09:53 E 6 10 Cloudy OVC006 66 61     84%     30.07 30.06      
Apr 18 09:28 NE 6 10 Mostly Cloudy BKN007 64 61     90%     30.07        
Apr 18 09:15 ENE 7 10 Mostly Cloudy BKN003 63 60     90%     30.07        
Apr 18 09:08 ENE 6 10 Partly Cloudy SCT003 63 60     90%     30.07        
Apr 18 08:53 Calm 8 Mostly Cloudy BKN002 62 60     93%     30.07 30.06      
Apr 18 08:40 ESE 6 2 Fog/Mist OVC002 61 59     93%     30.07        
Apr 18 08:18 ESE 6 0.5 Fog OVC002 60 58     93%     30.07        
Apr 18 08:07 ESE 6 1.25 Fog/Mist OVC002 60 59     96%     30.07        
Apr 18 07:53 E 6 0.5 Fog VV002 61 59     93%     30.07 30.06      
Apr 18 07:51 E 6 0.5 Fog VV002 61 59     94%     30.07        
Apr 18 06:53 ENE 6 0.25 Fog VV002 60 58     93%     30.06 30.05      
Apr 18 06:48 ENE 6 0.25 Fog VV002 61 57     88%     30.06        
Apr 18 06:13 NE 6 0.25 Fog VV002 60 58     93%     30.06        
Apr 18 06:06 ENE 5 0.5 Fog VV002 60 58     93%     30.06        
Apr 18 05:53 NE 6 0.25 Fog VV002 60 58     93%     30.06 30.05      
Apr 18 05:49 NE 6 0.25 Fog VV001 61 59     94%     30.06        
Apr 18 05:39 ENE 5 0.25 Fog VV001 60 58     93%     30.06        
Apr 18 05:21 NE 3 0.25 Fog VV001 61 59     93%     30.06        
Apr 18 04:53 Calm 0.25 Fog VV002 60 59     96%     30.06 30.05      
Apr 18 04:12 ENE 3 0.25 Fog VV002 60 58     93%     30.04        
Apr 18 04:08 NE 3 0.75 Fog/Mist BKN001 61 58     90%     30.04        
Apr 18 04:04 Calm 2.5 Fog/Mist BKN001 61 58     90%     30.04        
Apr 18 04:00 Calm 6 Fog/Mist BKN003 61 58     90%     30.04        
Apr 18 03:53 Calm 7 Partly Cloudy SCT003 61 58     90%     30.04 30.03      
Apr 18 03:51 Calm 6 Fog/Mist SCT003 61 57     88%     30.04        
Apr 18 03:36 Calm 7 Clear CLR 61 58     90%     30.04        
Apr 18 03:28 Calm 2.5 Fog/Mist CLR 61 58     90%     30.03        
Apr 18 02:53 Calm 10 Clear CLR 61 58     90%     30.04 30.03      
Apr 18 01:53 E 5 10 Partly Cloudy SCT031 62 58     86%     30.04 30.03      
Apr 18 00:53 Calm 10 Clear CLR 63 59     87%     30.05 30.04      
Apr 17 23:53 ENE 5 10 Clear   63 59     87%     30.04 30.03      
Apr 17 22:53 Calm 10 Mostly Cloudy BKN035 66 60     81%     30.04 30.03      
Apr 17 21:53 Calm 10 Mostly Cloudy BKN055 65 60     84%     30.04 30.03      
Apr 17 20:53 Calm 10 Partly Cloudy SCT041 68 60     76%     30.02 30.01      
Apr 17 19:53 SSW 5 10 Clear CLR 69 59     70%     29.99 29.98      
Apr 17 18:53 SW 6 10 Clear CLR 71 59     66%   71 30 29.99      
Apr 17 17:53 WSW 6 10 Clear CLR 73 58     59%   73 30 29.98      
Apr 17 16:53 NNE 7 10 Partly Cloudy SCT025 75 57     54%   75 29.99 29.98      
Apr 17 15:53 3 10 Mostly Clear FEW025 73 57     57%   73 30 29.99      
Apr 17 15:31 NNE 6 10 Partly Cloudy SCT025 72 58     61%   72 30.02        
Apr 17 14:53 NE 7 10 Mostly Cloudy BKN024 72 58     61%   72 30.03 30.02      
Apr 17 13:53 NE 8 10 Mostly Cloudy BKN026 70 59     68%     30.07 30.05      
Apr 17 12:53 5 10 Cloudy BKN012 BKN019 OVC023 66 60     81%     30.09 30.08 0   0
Apr 17 12:22 ENE 6 10 Cloudy BKN010 OVC095 65 59     81%     30.1   0    
Apr 17 11:53 SE 7 10 Light Rain OVC100 64 60     87%     30.09 30.08 0    
Apr 17 11:37 SSE 3 10 Light Rain SCT012 OVC100 64 59     84%     30.11   0    
Apr 17 11:20 S 3 10 Light Rain BKN011 OVC100 64 59     84%     30.12   0    
Apr 17 10:53 W 3 10 Mostly Cloudy FEW010 SCT014 BKN110 64 59     84%     30.12 30.11      
Apr 17 10:18 W 7 10 Mostly Cloudy BKN010 64 59     84%     30.11        
Apr 17 09:53 W 5 10 Partly Cloudy SCT010 64 59     84%     30.09 30.08 0 0  
Apr 17 09:35 WNW 7 10 Mostly Cloudy BKN010 64 59     84%     30.08   0    
Apr 17 08:53 ESE 3 10 Light Rain FEW034 OVC110 63 59     87%     30.07 30.06 0    
Apr 17 07:53 NNW 3 10 Clear CLR 62 58     86%     30.08 30.06      
Apr 17 06:53 WSW 6 10 Mostly Cloudy BKN110 61 58     90%     30.03 30.02 0   1
Apr 17 05:53 ESE 5 10 Light Rain OVC110 61 58     90%     30.02 30 0    
Apr 17 05:26 SE 7 10 Light Rain OVC110 61 58     90%     30.04   0    
Apr 17 05:07 SE 7 10 Thunderstorms and Rain SCT008 OVC100 61 58     90%     30.06   0    
Apr 17 05:03 ESE 7 10 Light Rain BKN008 BKN090 OVC110 61 58     90%     30.06   0    
Apr 17 04:53 E 6 10 Light Rain BKN008 OVC090 61 59     93%     30.06 30.05 0    
Apr 17 04:38 ESE 3 9 Clear   61 59     93%     30.08   0    
Apr 17 04:29 Calm 10 Clear   61 59     93%     30.07   0    
Apr 17 04:02 N 5 3 Clear   61 58     90%     30.07   0    
Apr 17 03:53 NNE 5 1.75 Clear   61 58     90%     30.08 30.06 0 1  
Apr 17 03:45 NNW 7 2 Clear   61 58     90%     30.09   0    
Apr 17 02:53 Calm 10 Thunderstorms and Rain FEW035 OVC046 63 58     84%     30.07 30.06 0    
Apr 17 02:46 NNE 3 8 Light Rain SCT034 OVC042 63 59     87%     30.06   0    
Apr 17 02:06   10 Squalls FEW022 BKN038 OVC090 69 58     68%     30.05        
Apr 17 01:53 NNW 14 10 Cloudy SCT046 BKN070 OVC100 68 63     84%     30.04 30.03      
Apr 17 00:53 Calm 10 Cloudy OVC060 69 64     84%     30.04 30.02      
Apr 16 23:53 Calm 10 Mostly Cloudy SCT065 BKN080 68 63     84%     30.04 30.03      
Apr 16 22:53 E 5 10 Clear CLR 70 64     81%     30.02 30.01      
Apr 16 21:53 E 3 10 Clear CLR 71 64     79%   72 30.02 30.01      
Apr 16 20:53 ESE 5 10 Clear CLR 72 65     79%   73 30.01 29.99      
Apr 16 19:53 E 5 10 Partly Cloudy SCT060 73 66     79%   74 30.02 30.01      
Apr 16 18:53 E 8 10 Mostly Cloudy BKN050 BKN060 77 66     69%   78 30.02 30.01     0
Apr 16 17:53 S 8 10 Mostly Cloudy BKN055 81 59     47%   81 30.01 29.99      
Apr 16 16:53 ENE 6 10 Cloudy OVC050 78 66     67%   79 30 29.98      
Apr 16 15:53 ENE 5 10 Mostly Cloudy BKN047 76 64     67%   76 30.01 30   0  
Apr 16 14:53 3 10 Clear CLR 75 64     69%   75 30.03 30.02      
Apr 16 13:53 W 6 10 Partly Cloudy SCT015 70 63     78%     30.05 30.04 0    
Apr 16 12:53 SSE 8 10 Light Rain FEW009 OVC100 66 62     87%     30.08 30.07 0   0
Apr 16 12:32 WNW 7 10 Light Rain SCT009 BKN090 OVC110 65 62     90%     30.1   0    
Apr 16 12:15   10 Light Rain OVC100 65 61     87%     30.07   0    
Apr 16 11:53 SE 14 10 Thunderstorms and Rain OVC100 65 62     90%     30.09 30.08 0    
Apr 16 11:51 SE 11 10 Thunderstorms and Light Rain OVC110 64 63     94%     30.1   0    
Apr 16 11:27   5 Light Rain and Fog/Mist FEW065 SCT080 OVC100 65 61     87%     30.11   0    
Apr 16 11:04 ESE 3 4 Thunderstorms and Light Rain and Fog/Mist FEW060 BKN075 OVC095 65 61     87%     30.16   0    
Apr 16 10:53 N 3 10 Light Rain SCT075 OVC095 65 61     87%     30.16   0    
Apr 09 00:53 Calm 10 Clear CLR 60 51     72%     29.82 29.81      
Apr 08 23:53 Calm 10 Clear CLR 63 50     63%     29.83 29.82      
Apr 08 22:53 ESE 3 10 Clear CLR 65 51     61%     29.85 29.83      
Apr 08 21:53 SE 5 10 Clear CLR 69 51     53%     29.85 29.84      
Apr 08 20:53 S 6 10 Clear CLR 71 51     49%   70 29.84 29.83      
Apr 08 19:53 S 6 10 Clear CLR 73 52     48%   72 29.82 29.8      
Apr 08 18:53 S 10 10 Clear CLR 76 52     43%   75 29.82 29.81      
Apr 08 17:53 S 15 10 Clear CLR 80 52     38%   80 29.82 29.81      
Apr 08 16:53 S 16 10 Clear CLR 81 52     37%   80 29.83 29.81      
Apr 08 15:53 SSW 11 10 Clear CLR 82 51     34%   81 29.84 29.83      
Apr 08 14:53 S 18 10 Clear CLR 81 50     34%   80 29.87 29.86      
Apr 08 13:53 S 11 10 Clear CLR 80 46     30%   79 29.9 29.89      
Apr 08 12:53 S 15 10 Clear CLR 79 45     30%   78 29.93 29.92      
Apr 08 11:53 S 11 10 Clear CLR 76 46     35%   75 29.96 29.95      
Apr 08 10:53 S 9 10 Clear CLR 73 47     39%   72 29.98 29.97      
Apr 08 09:53 E 7 10 Clear CLR 65 46     50%     29.99 29.98      
Apr 08 08:53 ENE 6 10 Clear CLR 57 44     62%     30.01 30      
Apr 08 07:53 NE 6 10 Clear CLR 52 43     71%     30.01 30.01      
Apr 08 06:53 ENE 9 10 Clear CLR 48 41     77% 44   30.01 30      
Apr 08 05:53 NE 7 10 Clear CLR 48 41     77% 45   30 29.99      
Apr 08 04:53 NE 8 10 Clear CLR 50 42     74% 47   30 29.99      
Apr 08 03:53 NE 7 10 Clear CLR 51 42     71%     30 29.99      
Apr 08 02:53 NE 5 10 Clear CLR 52 42     69%     30.01 30.01      
Apr 08 01:53 ENE 5 10 Clear CLR 53 42     66%     30.03 30.02      
Apr 08 00:53 ENE 7 10 Clear CLR 53 43     69%     30.03 30.03      
Apr 07 23:53 E 5 10 Clear CLR 55 42     62%     30.05 30.04      
Apr 07 22:53 Calm 10 Clear CLR 57 41     55%     30.07 30.06      
Apr 07 21:53 SE 5 10 Clear CLR 62 37     39%     30.07 30.06      
Apr 07 20:53 Calm 10 Clear CLR 64 36     35%     30.06 30.06      
Apr 07 19:53 ENE 5 10 Clear CLR 65 37     36%     30.06 30.05      
Apr 07 18:53 ENE 9 10 Clear CLR 69 38     32%     30.06 30.06      
Apr 07 17:53 S 3 10 Clear CLR 72 31     22%   70 30.07 30.07      
Apr 07 16:53 E 5 10 Clear CLR 72 29     20%   70 30.09 30.09      
Apr 07 15:53   10 Clear CLR 72 28     19%   70 30.13 30.12      
Apr 07 14:53 6 10 Clear CLR 70 29     22%     30.17 30.16      
Apr 07 13:53 NNE 3 10 Clear CLR 68 28     22%     30.2 30.19      
Apr 07 12:53 ENE 5 10 Clear CLR 66 30     26%     30.24 30.23      
Apr 07 11:53 E 5 10 Clear CLR 63 28     27%     30.27 30.27      
Apr 07 10:53 E 5 10 Clear CLR 61 29     30%     30.29 30.28      
Apr 07 09:53 Calm 10 Clear CLR 56 38     51%     30.28 30.28      
Apr 07 08:53 Calm 10 Clear CLR 50 37     61%     30.28 30.28      
Apr 07 07:53 Calm 10 Clear CLR 44 36     73%     30.27 30.27      
Apr 07 06:53 Calm 10 Clear CLR 40 34     79%     30.26 30.26      
Apr 07 05:53 Calm 10 Clear CLR 41 36     82%     30.25 30.25      
Apr 07 04:53 Calm 10 Clear CLR 40 36     86%     30.23 30.23      
Apr 07 03:53 Calm 10 Clear CLR 44 36     73%     30.23 30.22      
Apr 07 02:53 Calm 10 Clear CLR 45 36     71%     30.24 30.24      
Apr 07 01:53 Calm 10 Clear CLR 48 34     58%     30.25 30.24      
Apr 07 00:53 N 5 10 Clear CLR 49 35     59% 47   30.24 30.23      
Apr 06 23:53 N 3 10 Clear CLR 53 33     46%     30.23 30.22      
Apr 06 22:53 N 5 10 Clear CLR 55 32     41%     30.23 30.22      
Apr 06 21:53 N 6 10 Clear CLR 57 32     39%     30.21 30.21      
Apr 06 20:53 NW 5 10 Clear CLR 59 31     34%     30.18 30.18      
Apr 06 19:53 NNW 9 10 Clear CLR 61 30     31%     30.17 30.16      
Apr 06 18:53 NW 10 10 Clear CLR 65 29     26%     30.16 30.15      
Apr 06 17:53 WNW 17 10 Clear CLR 67 28     23%     30.16 30.15      
Apr 06 16:53 NW 18 10 Clear CLR 67 29     24%     30.16 30.15      
Apr 06 15:53 NNW 14 10 Clear CLR 68 29     23%     30.16 30.15      
Apr 06 14:53 NW 16 10 Clear CLR 68 29     23%     30.17 30.17      
Apr 06 13:53 WNW 14 10 Clear CLR 67 31     26%     30.19 30.18      
Apr 06 12:53 NW 11 10 Clear CLR 65 33     30%     30.2 30.19      
Apr 06 11:53 NNW 17 10 Clear CLR 63 33     33%     30.21 30.21      
Apr 06 10:53 WNW 10 10 Clear CLR 59 37     44%     30.22 30.22      
Apr 06 09:53 W 11 10 Clear CLR 55 41     59%     30.21 30.2      
Apr 06 08:53 W 10 10 Clear CLR 49 41     74% 45   30.2 30.19      
Apr 06 07:53 WSW 7 10 Clear CLR 45 40     82% 41   30.18 30.17      
Apr 06 06:53 WSW 7 10 Clear CLR 41 37     86% 36   30.14 30.14      
Apr 06 05:53 SW 6 10 Clear CLR 42 37     82% 38   30.11 30.11      
Apr 06 04:53 Calm 10 Clear CLR 44 37     76%     30.07 30.07      
Apr 06 03:53 NW 6 10 Clear CLR 48 37     66% 45   30.07 30.07      
Apr 06 02:53 WNW 7 10 Clear CLR 49 38     66% 46   30.06 30.06      
Apr 06 01:53 NW 8 10 Clear CLR 50 38     63% 47   30.06 30.06      
Apr 06 00:53 W 11 10 Clear CLR 48 40     73% 43   30.05 30.05     0
Apr 05 23:53 W 11 10 Clear CLR 48 40     73% 43   30.03 30.03      
Apr 05 22:53 W 8 10 Partly Cloudy SCT100 48 41     77% 44   30.02 30.02      
Apr 05 21:53 NW 13 10 Mostly Clear FEW049 FEW075 52 39     61%     30.02 30.02 0 0  
Apr 05 21:30 NNW 8 6 Light Rain SCT045 BKN060 OVC100 51 42     71%     30.02   0    
Apr 05 20:53 W 13 10 Mostly Clear FEW070 55 36     48%     29.99 29.99      
Apr 05 19:53 W 13 10 Clear CLR 58 36     44%     29.96 29.96      
Apr 05 18:53 WNW 16 10 Clear CLR 61 36     39%     29.94 29.94     0
Apr 05 17:53 WNW 22 10 Mostly Cloudy and Windy FEW060 FEW075 BKN090 62 35     36%     29.93 29.92      
Apr 05 16:53 NW 18 10 Mostly Clear FEW085 61 38     42%     29.92 29.91 0    
Apr 05 15:53 WNW 17 9 Light Rain SCT045 BKN060 BKN075 57 42     57%     29.9 29.9 0 0  
Apr 05 14:53 WNW 18 10 Clear   58 43     57%     29.89 29.88 0    
Apr 05 13:53 WNW 18 10 Light Rain SCT027 OVC035 54 45     72%     29.87 29.86 0    
Apr 05 13:31 WNW 21 10 Light Rain SCT024 BKN029 OVC050 53 44     71%     29.85   0    
Apr 05 13:15 WNW 25 10 Mostly Cloudy and Windy SCT025 SCT033 BKN050 56 44     64%     29.84        
Apr 05 12:53 WNW 17 10 Cloudy SCT021 BKN026 OVC033 54 45     72%     29.83 29.83 0   0
Apr 05 11:53 WNW 20 10 Cloudy and Windy BKN021 OVC028 52 45     77%     29.81 29.8 0    
Apr 05 10:53 W 20 10 Cloudy and Windy BKN022 OVC029 52 44     74%     29.78 29.77 0    
Apr 05 10:18 W 22 10 Cloudy and Windy SCT014 BKN023 OVC028 51 45     79%     29.76   0    
Apr 05 10:01   7 Light Rain BKN014 OVC019 50 45     83%     29.75   0    
Apr 05 09:53 W 21 8 Cloudy and Windy BKN015 OVC023 51 46     83%     29.73 29.72   0  
Apr 05 09:51 W 22 9 Cloudy and Windy BKN013 OVC020 52 46     82%     29.73        
Apr 05 08:53 W 23 10 Cloudy and Windy OVC017 51 45     79%     29.71 29.7 0    
Apr 05 08:11 W 22 10 Cloudy and Windy SCT010 OVC015 51 46     83%     29.7   0    
Apr 05 07:53 W 16 9 Light Rain BKN010 OVC014 50 47     89% 44   29.69 29.68 0    
Apr 05 07:30 WSW 18 9 Cloudy OVC014 50 46     86% 44   29.69   0    
Apr 05 06:53 WSW 14 9 Light Rain SCT020 BKN026 OVC040 51 45     79%     29.68 29.67 0   0
Apr 05 06:25 WSW 17 10 Cloudy FEW022 BKN028 OVC042 52 43     71%     29.68        
Apr 05 05:53 SW 15 10 Mostly Cloudy BKN039 51 44     77%     29.67 29.66      
Apr 05 04:53 WSW 11 10 Clear   52 44     74%     29.66 29.65      
Apr 05 04:32 W 18 10 Mostly Cloudy FEW022 BKN031 52 44     74%     29.65        
Apr 05 03:53   10 Cloudy BKN020 OVC026 54 47     77%     29.64 29.63      
Apr 05 03:44   10 Mostly Cloudy BKN020 BKN026 55 50     83%     29.64        
Apr 05 02:53 W 15 10 Clear CLR 57 52     83%     29.63 29.62      
Apr 05 01:53 WSW 8 10 Clear CLR 58 53     84%     29.64 29.62      
Apr 05 00:53 Calm 10 Clear CLR 60 52     75%     29.63 29.62 0   0
Apr 04 23:53 SE 9 10 Cloudy OVC095 60 54     80%     29.63 29.62 0    
Apr 04 22:53 WNW 5 6 Light Rain BKN060 OVC080 62 56     80%     29.69   0    
Apr 04 22:27 SW 7 8 Light Rain BKN080 OVC100 63 54     72%     29.68   0    
Apr 04 22:12 W 9 9 Light Rain OVC095 65 55     70%     29.66   0    
Apr 04 21:53 W 5 10 Mostly Cloudy BKN090 62 57     84%     29.65 29.64 0 0  
Apr 04 21:41 WNW 6 10 Light Rain BKN095 OVC110 64 57     78%     29.63   0    
Apr 04 21:19 SSW 7 9 Thunderstorms and Light Rain FEW080 BKN095 OVC120 64 56     75%     29.63   0    
Apr 04 20:53 SW 11 10 Thunderstorms and Rain FEW037 BKN080 OVC110 63 56     78%     29.61   0    
Apr 04 19:53 SW 13 10 Thunderstorms and Rain FEW049 BKN090 OVC110 75 53     46%   74 29.55 29.54 0    
Apr 04 19:42 SSW 14 10 Thunderstorms and Rain FEW050 BKN095 BKN110 77 51     40%   76 29.55   0    
Apr 04 19:35 S 15 10 Light Rain FEW055 BKN090 80 47     31%   79 29.54   0    
Apr 04 18:53 SSE 11 10 Clear CLR 82 45     27%   80 29.51 29.5      
Apr 04 17:53 SSE 14 10 Clear CLR 83 46     28%   81 29.52 29.51      
Apr 04 16:53 S 13 10 Mostly Clear FEW090 85 47     27%   82 29.55 29.54      
Apr 04 15:53 S 15 10 Mostly Clear FEW100 85 45     25%   82 29.57 29.56      
Apr 04 14:53 S 14 10 Clear CLR 86 47     26%   83 29.59 29.58      
Apr 04 13:53 SE 10 10 Clear CLR 84 50     31%   82 29.64 29.62      
Apr 04 12:53 ENE 15 10 Clear CLR 76 56     50%   76 29.68 29.67      
Apr 04 11:53 ENE 14 10 Partly Cloudy SCT110 70 55     59%     29.73 29.72      
Apr 04 11:41 NE 9 10 Mostly Cloudy FEW085 BKN110 70 55     59%     29.75        
Apr 04 11:26 ENE 9 10 Cloudy BKN080 OVC110 67 55     66%     29.75        
Apr 04 10:53 NNE 7 10 Partly Cloudy SCT110 67 55     66%     29.77 29.76      
Apr 04 08:53 ENE 7 10 Clear CLR 57 52     83%     29.76 29.75      
Apr 04 07:53 Calm 10 Clear CLR 53 50     89%     29.77 29.76      
Apr 04 06:53 E 6 10 Clear CLR 52 49     89%     29.75 29.74      
Apr 04 05:53 Calm 10 Clear CLR 52 49     89%     29.75 29.74      
Apr 04 04:53 Calm 10 Clear CLR 52 50     93%     29.74 29.73      
Apr 04 03:53 NNE 5 10 Clear CLR 52 49     89%     29.72 29.71      
Apr 04 02:53 NNE 3 10 Clear CLR 53 48     83%     29.73 29.72      
Apr 04 01:53 Calm 10 Clear CLR 52 48     86%     29.73 29.72      
Apr 04 00:53 Calm 10 Clear CLR 55 50     83%     29.73 29.72      
Apr 03 23:53 Calm 10 Clear CLR 57 51     81%     29.73 29.72      
Apr 03 22:53 Calm 10 Clear CLR 58 51     78%     29.71 29.7      
Apr 03 21:53 W 5 10 Clear CLR 60 51     72%     29.69 29.68      
Apr 03 20:53 Calm 10 Clear CLR 65 49     56%     29.66 29.65      
Apr 03 19:53 SW 6 10 Clear CLR 67 48     51%     29.65 29.64      
Apr 03 18:53 W 13 10 Clear CLR 72 48     43%   71 29.63 29.62      
Apr 03 17:53 W 10 10 Clear CLR 73 49     43%   72 29.61 29.6      
Apr 03 16:53 W 14 10 Mostly Clear FEW047 72 50     46%   71 29.61 29.59      
Apr 03 15:53 W 16 10 Mostly Clear FEW040 72 50     46%   71 29.6 29.59      
Apr 03 14:53   10 Clear   70 52     53%     29.6 29.58      
Apr 03 13:53   10 Partly Cloudy SCT032 69 53     57%     29.6 29.59      
Apr 03 12:53 W 20 10 Mostly Cloudy and Windy SCT026 BKN033 67 54     63%     29.6 29.59     0
Apr 03 12:49   10 Mostly Cloudy SCT026 BKN033 66 54     64%     29.6        
Apr 03 11:53 WSW 23 10 Cloudy and Windy BKN021 OVC027 62 53     72%     29.61 29.6      
Apr 03 10:53 WSW 17 10 Cloudy BKN020 OVC027 61 53     75%     29.6 29.59      
Apr 03 09:53 WSW 15 10 Clear   61 55     81%     29.58 29.57   0  
Apr 03 09:17 WSW 16 10 Cloudy SCT013 BKN017 OVC110 59 55     87%     29.58        
Apr 03 08:53 WSW 17 10 Cloudy SCT016 BKN075 OVC090 59 54     83%     29.58 29.57 0    
Apr 03 08:33 WSW 16 8 Light Rain SCT011 BKN055 OVC075 59 55     87%     29.57   0    
Apr 03 08:09 WSW 18 3 Light Rain SCT009 BKN018 OVC050 61 57     87%     29.56   0    
Apr 03 07:53 SW 11 10 Mostly Cloudy BKN038 BKN050 BKN065 61 57     87%     29.56 29.55      
Apr 03 06:53 SW 9 4 Fog/Mist FEW008 BKN033 OVC040 60 57     90%     29.55 29.54 0   0
Apr 03 06:51 SW 10 4 Fog/Mist FEW008 SCT022 OVC033 61 57     88%     29.55   0    
Apr 03 06:40 SSW 9 4 Fog/Mist SCT008 BKN015 OVC033 60 57     90%     29.55   0    
Apr 03 06:27 SW 7 4 Fog/Mist BKN009 OVC015 60 57     90%     29.55   0    
Apr 03 06:20 SW 10 4 Fog/Mist SCT007 OVC013 60 57     90%     29.55   0    
Apr 03 06:04 SW 6 4 Light Rain and Fog/Mist BKN010 OVC015 60 57     90%     29.54   0    
Apr 03 05:53 SSW 3 10 Light Rain SCT009 OVC015 60 57     90%     29.54 29.54 0    
Apr 03 05:38 S 3 10 Cloudy FEW009 OVC014 60 57     90%     29.54        
Apr 03 04:53 ESE 3 10 Cloudy OVC016 60 57     90%     29.54 29.53      
Apr 03 03:53 Calm 10 Cloudy SCT004 OVC027 59 57     93%     29.55 29.54      
Apr 03 03:02 ESE 3 8 Cloudy OVC004 59 57     93%     29.57        
Apr 03 02:53 ESE 3 8 Cloudy OVC005 59 57     93%     29.57 29.56      
Apr 03 01:53 E 6 6 Fog/Mist BKN005 OVC024 59 57     93%     29.6 29.59      
Apr 03 01:21 ESE 6 6 Fog/Mist BKN006 BKN017 OVC029 59 56     90%     29.61        
Apr 03 00:53 ESE 7 8 Cloudy SCT006 OVC018 60 56     86%     29.59 29.58     0
Apr 02 23:53 E 8 10 Cloudy OVC024 60 57     90%     29.62 29.61      
Apr 02 22:53 NE 3 9 Cloudy FEW020 OVC028 60 57     90%     29.69 29.68 0    
Apr 02 22:37 ENE 6 8 Cloudy SCT012 BKN021 OVC028 60 57     90%     29.69   0    
Apr 02 21:53 NE 6 8 Light Rain OVC011 60 57     90%     29.7 29.69 0 0  
Apr 02 20:53 E 5 10 Cloudy OVC012 60 57     90%     29.67 29.67      
Apr 02 20:39 E 5 10 Cloudy OVC011 60 57     90%     29.67        
Apr 02 19:53 E 7 10 Cloudy OVC008 60 57     90%     29.66 29.66      
Apr 02 18:53 E 9 10 Cloudy OVC008 60 57     90%     29.66 29.65 0   0
Apr 02 18:21 E 10 10 Cloudy OVC009 61 57     87%     29.68   0    
Apr 02 17:53 E 9 10 Light Rain OVC010 60 57     90%     29.71 29.7 0    
Apr 02 16:53 ENE 9 9 Light Rain SCT010 OVC014 60 56     86%     29.72 29.72 0    
Apr 02 16:47 ENE 11 10 Light Rain SCT010 BKN015 OVC095 61 57     88%     29.72   0    
Apr 02 16:42 ENE 11 10 Thunderstorms and Rain BKN012 BKN080 OVC100 60 56     86%     29.72   0    
Apr 02 15:53 ENE 13 5 Thunderstorms and Rain and Fog/Mist SCT070 OVC095 60 56     86%     29.78 29.77 0 0  
Apr 02 14:53 E 9 6 Thunderstorms and Rain BKN080 OVC100 63 56     78%     29.81 29.8 0    
Apr 02 13:53 E 8 10 Light Rain OVC100 65 53     65%     29.83 29.82 0    
Apr 02 12:53 ENE 13 10 Clear CLR 66 51     59%     29.86 29.85      
Apr 02 11:53 NE 14 10 Clear CLR 66 51     59%     29.85 29.84      
Apr 02 10:53 ENE 14 10 Clear CLR 62 49     62%     29.9 29.89      
Apr 02 09:53 E 11 10 Clear CLR 61 49     64%     29.95 29.94      
Apr 02 08:53 ENE 11 10 Clear CLR 58 48     70%     29.95 29.94      
Apr 02 07:53 ENE 13 10 Clear CLR 57 49     74%     29.98 29.97      
Apr 02 06:53 E 13 10 Clear CLR 57 49     74%     30 29.99      
Apr 02 05:53 E 11 10 Partly Cloudy SCT065 58 49     72%     30 29.99      
Apr 02 04:53 ENE 13 10 Mostly Cloudy SCT060 SCT075 BKN120 58 50     75%     30 29.98      
Apr 02 03:53 ENE 9 10 Cloudy SCT060 BKN070 OVC110 59 50     72%     29.99 29.98      
Apr 02 02:53 E 6 10 Clear CLR 59 50     72%     29.99 29.98      
Apr 02 01:53 E 10 10 Mostly Clear FEW120 60 50     69%     29.98 29.97      
Apr 02 00:53 E 13 10 Mostly Cloudy BKN110 62 51     67%     29.98 29.97      
Apr 01 23:53 E 10 10 Mostly Cloudy BKN100 63 51     65%     30.01 30      
Apr 01 22:53 E 14 10 Clear CLR 64 51     63%     30.01 30      
Apr 01 21:53 ENE 13 10 Clear CLR 64 52     65%     30 29.99      
Apr 01 20:53 E 13 10 Clear CLR 67 52     59%     29.98 29.98      
Apr 01 19:53 E 11 10 Clear CLR 68 52     57%     29.97 29.97      
Apr 01 18:53 ENE 14 10 Clear CLR 70 52     53%     29.97 29.96      
Apr 01 17:53 ENE 14 10 Clear CLR 72 53     51%   71 29.95 29.94      
Apr 01 16:53 ENE 18 10 Clear   74 52     46%   73 29.94 29.93      
Apr 01 15:53 ENE 17 10 Clear CLR 76 52     43%   75 29.97 29.96      
Apr 01 14:53 ENE 18 10 Clear CLR 75 52     45%   74 29.99 29.98      
Apr 01 13:53 ENE 13 10 Clear CLR 72 51     48%   71 30.03 30.02      
Apr 01 12:53 ENE 14 10 Clear CLR 69 49     49%     30.06 30.04      
Apr 01 11:53 E 13 10 Clear CLR 66 48     52%     30.07 30.06      
Apr 01 10:53 E 17 10 Clear CLR 62 47     58%     30.07 30.06      
Apr 01 09:53 E 13 10 Clear CLR 59 46     62%     30.09 30.08      
Apr 01 08:53   10 Clear CLR 56 45     67%     30.09 30.08      
Apr 01 07:53 E 14 10 Clear CLR 54 45     72%     30.07 30.06      
Apr 01 06:53 E 14 10 Clear CLR 53 46     77%     30.03 30.02      
Apr 01 05:53 E 16 10 Clear CLR 55 47     74%     29.99 29.98      
Apr 01 04:53 E 14 10 Clear CLR 56 47     72%     29.97 29.96      
Apr 01 03:53 ENE 11 10 Clear CLR 57 47     69%     29.97 29.96      
Apr 01 02:53 ENE 11 10 Clear CLR 58 48     70%     29.96 29.95      
Apr 01 01:53 ENE 10 10 Clear CLR 59 48     67%     29.95 29.94      
Apr 01 00:53 E 10 10 Clear CLR 60 48     64%     29.94 29.93      
Mar 31 23:53 ENE 8 10 Clear CLR 60 48     64%     29.92 29.91      
Mar 31 22:53 ENE 5 10 Clear CLR 60 48     64%     29.9 29.89      
Mar 31 21:53 Calm 10 Clear CLR 63 49     60%     29.89 29.89      
Mar 31 20:53 Calm 10 Clear CLR 65 49     56%     29.86 29.85      
Mar 31 19:53 ENE 6 10 Clear CLR 66 47     50%     29.84 29.83      
Mar 31 18:53 NE 6 10 Clear CLR 72 46     40%   71 29.83 29.82      
Mar 31 17:53 E 7 10 Clear CLR 73 43     34%   72 29.83 29.82      
Mar 31 16:53 ENE 7 10 Clear CLR 73 43     34%   72 29.84 29.83      
Mar 31 15:53 Calm 10 Clear CLR 71 43     36%   70 29.84 29.83      
Mar 31 14:53   10 Clear CLR 69 46     44%     29.86 29.85      
Mar 31 13:53 3 10 Clear CLR 66 46     48%     29.89 29.88      
Mar 31 11:53 N 5 10 Clear CLR 60 44     55%     29.92 29.91      
Mar 31 10:53 5 10 Clear CLR 57 43     59%     29.92 29.91      
Mar 31 09:53 3 10 Mostly Clear FEW018 54 43     66%     29.91 29.9      
Mar 31 09:02 NNE 6 10 Partly Cloudy SCT018 54 43     66%     29.9        
Mar 31 08:53 Calm 10 Mostly Cloudy BKN018 53 43     69%     29.9 29.9      
Mar 31 06:53 Calm 10 Cloudy OVC021 47 42     83%     29.87 29.86      
Mar 31 05:53 W 7 10 Cloudy OVC022 47 42     83% 44   29.86 29.85      
Mar 31 04:53 WSW 6 10 Mostly Cloudy BKN023 44 41     89% 41   29.84 29.83      
Mar 31 03:53 W 5 10 Clear CLR 43 39     86% 40   29.81 29.81      
Mar 31 02:53 Calm 10 Clear CLR 46 41     82%     29.79 29.79      
Mar 31 01:53 WSW 3 10 Clear CLR 46 41     82% 45   29.81 29.81      
Mar 31 00:53 W 6 10 Clear CLR 46 41     82% 43   29.81 29.81      
Mar 30 23:53 W 5 10 Clear CLR 50 41     71% 48   29.8 29.8      
Mar 30 22:53 NW 9 10 Mostly Clear FEW035 53 41     63%     29.8 29.8      
Mar 30 21:53 NW 9 10 Cloudy OVC037 55 41     59%     29.79 29.79      
Mar 30 20:53 NW 7 10 Clear   55 42     62%     29.77 29.76      
Mar 30 19:53 W 9 10 Cloudy OVC043 56 42     60%     29.76 29.75      
Mar 30 18:53 WNW 10 10 Cloudy OVC039 56 42     60%     29.75 29.74      
Mar 30 17:53 W 11 10 Clear   57 42     57%     29.73 29.72      
Mar 30 16:53 W 15 10 Cloudy OVC036 56 42     60%     29.72 29.71      
Mar 30 15:53 W 16 10 Cloudy BKN030 OVC041 55 42     62%     29.72 29.72      
Mar 30 15:51 W 15 10 Cloudy BKN030 OVC039 55 43     62%     29.72        
Mar 30 14:53 W 16 10 Cloudy OVC029 54 41     61%     29.72 29.72      
Mar 30 13:53 W 15 10 Cloudy OVC029 54 42     64%     29.73 29.72      
Mar 30 12:53 WSW 15 10 Cloudy OVC030 53 41     63%     29.72 29.72      
Mar 30 11:53 W 18 10 Clear   52 40     63%     29.73 29.72      
Mar 30 10:53 WSW 18 10 Cloudy OVC029 52 40     63%     29.72 29.71      
Mar 30 10:05 WSW 16 10 Cloudy BKN028 OVC035 52 40     63%     29.71        
Mar 30 09:53 WSW 15 10 Cloudy SCT028 OVC035 52 40     63%     29.71 29.7      
Mar 30 09:46 WSW 17 10 Cloudy BKN028 OVC033 51 40     65%     29.71        
Mar 30 08:53 WSW 14 10 Cloudy OVC035 52 39     61%     29.71 29.7      
Mar 30 07:53 WSW 17 10 Cloudy OVC035 51 39     63%     29.71 29.7      
Mar 30 07:07 SW 8 10 Cloudy OVC030 51 41     68%     29.71        
Mar 30 06:53 WSW 8 10 Cloudy OVC029 51 40     65%     29.71 29.7      
Mar 30 06:00 W 16 10 Cloudy OVC029 51 40     65%     29.71        
Mar 30 05:53 W 13 10 Cloudy OVC031 51 41     68%     29.71 29.7      
Mar 30 05:34 WSW 11 10 Cloudy OVC031 51 41     68%     29.7        
Mar 30 05:27 WSW 10 10 Mostly Cloudy BKN029 51 41     68%     29.7        
Mar 30 04:53 SW 6 10 Cloudy OVC031 51 42     71%     29.7 29.69      
Mar 30 03:53 W 7 10 Mostly Clear FEW075 50 42     74% 47   29.71 29.7      
Mar 30 02:53 W 10 10 Partly Cloudy SCT090 52 42     69%     29.72 29.71      
Mar 30 01:53 W 10 10 Clear CLR 55 44     66%     29.71 29.7      
Mar 30 00:53 W 13 10 Clear CLR 57 46     67%     29.73 29.72      
Mar 29 23:53 W 9 10 Clear CLR 61 51     70%     29.71 29.7      
Mar 29 22:53 W 14 10 Clear CLR 64 51     63%     29.68 29.67      
Mar 29 21:53 W 8 10 Mostly Clear FEW100 66 53     63%     29.69 29.68      
Mar 29 21:27 W 14 10 Mostly Cloudy FEW044 SCT070 BKN095 69 53     57%     29.69        
Mar 29 20:53 S 8 10 Mostly Clear FEW090 71 56     59%   71 29.66 29.65      
Mar 29 19:53 SSW 8 10 Mostly Cloudy FEW060 BKN070 BKN090 73 56     55%   73 29.68 29.67      
Mar 29 18:53 SSW 5 10 Mostly Cloudy SCT049 BKN065 BKN085 75 57     54%   75 29.68 29.66      
Mar 29 17:53 6 10 Mostly Clear FEW049 76 56     50%   76 29.66 29.65      
Mar 29 16:53 S 16 10 Mostly Clear FEW045 FEW080 77 56     48%   77 29.67 29.65      
Mar 29 15:53 S 13 10 Cloudy FEW048 OVC070 74 56     53%   74 29.71 29.7      
Mar 29 14:53 SSW 9 10 Cloudy BKN047 OVC055 72 56     57%   72 29.72 29.71      
Mar 29 13:53 SSW 17 10 Cloudy BKN050 OVC070 76 56     50%   76 29.72 29.71      
Mar 29 12:53 S 21 10 Mostly Cloudy and Windy BKN055 74 54     50%   73 29.73 29.71     0
Mar 29 11:53 ESE 14 10 Clear CLR 71 58     63%   71 29.7 29.68      
Mar 29 10:53 E 11 10 Partly Cloudy SCT007 66 59     78%     29.71 29.69      
Mar 29 10:09 ENE 16 10 Partly Cloudy SCT007 64 60     87%     29.71        
Mar 29 09:53 E 11 10 Clear CLR 65 60     84%     29.71 29.7 0 0  
Mar 29 08:53 E 11 9 Mostly Cloudy FEW075 SCT090 BKN110 60 57     90%     29.76 29.75 0    
Mar 29 07:53 W 7 3 Light Rain and Fog/Mist FEW014 BKN043 OVC050 61 57     87%     29.8   0    
Mar 29 06:53 E 14 10 Mostly Cloudy FEW033 BKN100 62 54     75%     29.73 29.72 0   0
Mar 29 05:53 E 16 10 Light Rain SCT100 SCT120 62 55     78%     29.73 29.72 0    
Mar 29 04:53 E 14 10 Cloudy FEW026 SCT070 OVC090 63 55     75%     29.77 29.76      
Mar 29 04:16 E 10 10 Mostly Cloudy BKN025 63 55     75%     29.76        
Mar 29 03:53 E 13 10 Partly Cloudy SCT075 64 55     73%     29.76 29.74      
Mar 29 02:53   10 Mostly Clear FEW070 65 56     73%     29.78 29.77      
Mar 29 01:53 ESE 17 10 Partly Cloudy FEW060 SCT080 66 56     70%     29.81 29.79      
Mar 29 00:53 E 14 10 Cloudy SCT046 BKN065 OVC100 66 56     70%     29.81 29.79      
Mar 28 23:53 E 10 10 Mostly Cloudy BKN090 67 57     71%     29.81 29.8      
Mar 28 22:53 ESE 16 10 Mostly Cloudy BKN090 69 57     65%     29.83 29.82      
Mar 28 21:53 E 15 10 Cloudy BKN046 BKN065 OVC085 70 57     63%     29.83 29.82      
Mar 28 20:53 E 14 10 Mostly Cloudy SCT050 BKN070 BKN090 71 58     63%   71 29.82 29.82      
Mar 28 19:53 ESE 16 10 Cloudy SCT075 OVC090 73 58     59%   73 29.84 29.83      
Mar 28 18:53 ESE 16 10 Cloudy OVC043 75 58     55%   75 29.83 29.82      
Mar 28 17:53 ESE 17 10 Cloudy SCT049 OVC060 78 57     48%   78 29.81 29.8      
Mar 28 16:53 ESE 10 10 Mostly Clear FEW047 FEW075 77 57     50%   77 29.82 29.81      
Mar 28 15:53 ESE 11 10 Mostly Clear FEW041 FEW050 78 56     47%   78 29.85 29.84      
Mar 28 14:53 E 15 10 Clear CLR 75 57     54%   75 29.87 29.86      
Mar 28 13:53 ENE 15 10 Clear CLR 73 55     53%   73 29.91 29.91      
Mar 28 12:53 ENE 13 10 Clear CLR 69 54     59%     29.96 29.95      
Mar 28 11:53 NE 13   Mostly Clear FEW022 66 53     63%     29.99 29.98      
Mar 28 10:53 E 10 10 Partly Cloudy SCT014 61 52     72%     30.01 30